Effective Sunday, March 17, 2024, the National Weather Service National Data Buoy Center will discontinue its Dial-A-Buoy Interactive Voice Response system. For more information, see Service Change Notice 24-06 (PDF).

Station SAXG1 - Marsh Island, Sapelo Island Reserve, GA Image indicating link to RSS feed of recent meteorological observations for station SAXG1


Conditions at SAXG1 as of
(9:00 am EST)
1400 GMT on 02/23/2024:
     

Click on the graph icon in the table below to see a time series plot of the last five days of that observation.

5-day plot - Wind Direction Wind Direction (WDIR): SW ( 220 deg true )
5-day plot - Wind Speed Wind Speed (WSPD): 18.1 kts
5-day plot - Atmospheric Pressure Atmospheric Pressure (PRES):29.74 in
5-day plot - Pressure Tendency Pressure Tendency (PTDY):-0.03 in ( Falling )
5-day plot - Air Temperature Air Temperature (ATMP): 61.3 °F
5-day plot - Dew Point Dew Point (DEWP): 55.6 °F
5-day plot -  Wind Speed, Wind Gust and Atmospheric Pressure Combined plot of Wind Speed, Gust, and Air Pressure
Previous observations
TIME
(EST)
5-day plot - Wind Direction
WDIR
 
5-day plot - Wind Speed
WSPD
kts
5-day plot - Wind Gust
GST
kts
5-day plot - Wave Height
WVHT
ft
5-day plot - Dominant Wave Period
DPD
sec
5-day plot - Average Wave Period
APD
sec
5-day plot - Mean Wave Direction
MWD
 
5-day plot - Atmospheric Pressure
PRES
in
5-day plot - Pressure Tendency
PTDY
in
5-day plot - Air Temperature
ATMP
°F
5-day plot - Water Temperature
WTMP
°F
5-day plot - Dew Point
DEWP
°F
5-day plot - Salinity
SAL
psu
5-day plot - Visibility
VIS
nmi
5-day plot - Tide (above MLLW)
TIDE
ft
2024-02-23 08:45 amSSW 18.1-----29.74- 60.3- 55.2---
2024-02-23 08:30 amSSW 19.0-----29.74- 59.5- 54.5---
2024-02-23 08:15 amSSW 19.0-----29.74- 59.0- 54.0---
2024-02-23 08:00 amSSW 19.0-----29.74-0.03 58.5- 53.4---
2024-02-23 07:45 amSSW 18.1-----29.74- 57.6- 53.2---
2024-02-23 07:30 amSSW 18.1-----29.74- 56.7- 52.5---
2024-02-23 07:15 amSSW 17.1-----29.74- 55.8- 52.3---
2024-02-23 07:00 amSSW 15.0-----29.77-0.03 55.2- 51.8---
2024-02-23 06:45 amSSW 15.0-----29.77- 54.9- 51.4---
2024-02-23 06:30 amSSW 14.0-----29.77- 54.3- 50.9---
2024-02-23 06:15 amSSW 15.0-----29.77- 54.3- 50.5---
2024-02-23 06:00 amSSW 14.0-----29.77-0.06 54.7- 50.7---
2024-02-23 05:45 amSSW 14.0-----29.77- 54.5- 50.5---
2024-02-23 05:30 amSSW 13.0-----29.77- 53.8- 50.0---
2024-02-23 05:15 amSSW 12.0-----29.77- 53.2- 49.8---
2024-02-23 05:00 amSSW 9.9-----29.77-0.09 52.7- 49.3---
2024-02-23 04:45 amSSW 9.9-----29.77- 52.7- 49.3---
2024-02-23 04:30 amSSW 8.9-----29.80- 52.5- 48.7---
2024-02-23 04:15 amSSW 8.9-----29.80- 52.0- 48.2---
2024-02-23 04:00 amSSW 8.0-----29.80-0.06 51.8- 47.8---
2024-02-23 03:45 amSSW 8.0-----29.80- 51.8- 47.8---
2024-02-23 03:30 am S 8.0-----29.80- 51.3- 46.9---
2024-02-23 03:15 am S 8.0-----29.80- 51.1- 46.4---
2024-02-23 03:00 am S 7.0-----29.83-0.03 50.5- 45.7---
2024-02-23 02:45 am S 7.0-----29.83- 50.4- 45.5---
2024-02-23 02:30 am S 6.0-----29.83- 50.2- 45.0---
2024-02-23 02:15 am S 6.0-----29.83- 50.4- 44.8---
2024-02-23 02:00 amSSW 6.0-----29.85-0.03 50.4- 44.2---
2024-02-23 01:45 amSSW 6.0-----29.85- 51.8- 44.6---
2024-02-23 01:30 amSSW 7.0-----29.85- 51.6- 44.4---
2024-02-23 01:15 amSSW 7.0-----29.85- 51.1- 43.9---
2024-02-23 01:00 amSSW 7.0-----29.85-0.06 51.6- 43.7---
2024-02-23 12:45 amSSW 7.0-----29.85- 52.5- 44.6---
2024-02-23 12:30 am SW 7.0-----29.85- 52.5- 44.6---
2024-02-23 12:15 am SW 8.0-----29.85- 52.3- 44.1---
2024-02-23 12:00 amSSW 8.9-----29.85-0.06 52.9- 44.2---
2024-02-22 11:45 pmSSW 9.9-----29.88- 53.1- 44.8---
2024-02-22 11:30 pmSSW 9.9-----29.88- 54.0- 46.6---
2024-02-22 11:15 pmSSW 9.9-----29.88- 54.0- 48.4---
2024-02-22 11:00 pmSSW 9.9-----29.88-0.03 54.3- 50.0---
2024-02-22 10:45 pmSSW 9.9-----29.88- 55.0- 50.7---
2024-02-22 10:30 pmSSW 11.1-----29.88- 55.2- 51.1---
2024-02-22 10:15 pmSSW 11.1-----29.88- 55.2- 50.9---
2024-02-22 10:00 pmSSW 8.9-----29.91-0.03 55.8- 52.7---
2024-02-22 09:45 pmSSW 11.1-----29.91- 56.8- 53.4---
2024-02-22 09:30 pm S 11.1-----29.91- 57.0- 53.2---
2024-02-22 09:15 pm S 9.9-----29.91- 56.8- 52.5---
2024-02-22 09:00 pm S 8.0-----29.91- 56.1- 51.4---
2024-02-22 08:45 pm S 8.0-----29.91- 55.9- 50.9---
2024-02-22 08:30 pm S 7.0-----29.91- 55.8- 50.2---
2024-02-22 08:15 pm S 8.0-----29.91- 56.3- 50.7---
2024-02-22 08:00 pm S 8.0-----29.91- 56.5- 51.4---
2024-02-22 07:45 pm S 8.0-----29.91- 56.1- 51.8---
2024-02-22 07:30 pm S 6.0-----29.94- 55.8- 50.7---
2024-02-22 07:15 pm S 7.0-----29.94- 55.9- 50.0---
2024-02-22 07:00 pm S 6.0-----29.94-0.03 55.9- 50.4---
2024-02-22 06:45 pm S 6.0-----29.94- 57.0- 50.0---
2024-02-22 06:30 pmSSE 7.0-----29.94- 57.7- 50.0---
2024-02-22 06:15 pm S 7.0-----29.94- 58.5- 50.4---
2024-02-22 04:00 pmSSE 9.9-----29.97-0.09 65.5- 43.3---
2024-02-22 03:45 pm SE 9.9-----29.97- 65.8- 42.4---
2024-02-22 03:30 pmSSE 8.9-----29.97- 66.9- 42.3---
2024-02-22 03:15 pmSSE 11.1-----29.97- 66.7- 42.6---
2024-02-22 02:00 pmSSE 9.9-----30.03-0.12 66.2- 41.5---
2024-02-22 01:45 pm S 11.1-----30.03- 66.0- 42.1---
2024-02-22 01:30 pmSSE 9.9-----30.03- 65.8- 43.0---
2024-02-22 01:15 pmSSE 11.1-----30.06- 65.5- 41.5---
2024-02-22 01:00 pmSSE 8.9-----30.06-0.09 66.6- 43.2---
2024-02-22 12:45 pmSSE 8.0-----30.09- 66.4- 43.5---
2024-02-22 12:30 pm S 7.0-----30.09- 66.2- 44.1---
2024-02-22 12:15 pmSSE 5.1-----30.12- 65.8- 44.2---
2024-02-22 12:00 pm S 6.0-----30.12-0.06 65.3- 43.2---
2024-02-22 11:45 am S 6.0-----30.15- 64.0- 40.3---
2024-02-22 11:30 am S 7.0-----30.15- 63.7- 43.3---
2024-02-22 11:15 amSSE 7.0-----30.15- 63.0- 43.3---
2024-02-22 11:00 am S 6.0-----30.15-0.03 62.1- 44.4---
2024-02-22 10:45 am S 5.1-----30.15- 60.1- 46.8---
2024-02-22 10:30 amWSW 4.1-----30.15- 56.3- 47.1---
2024-02-22 10:15 amWSW 2.9-----30.15- 55.4- 46.6---
2024-02-22 10:00 am- 0.0-----30.15+0.00 56.8- 47.7---
2024-02-22 09:45 am- 0.0-----30.18- 55.4- 47.3---
2024-02-22 09:30 amWNW 1.0-----30.18- 53.4- 46.8---
2024-02-22 09:15 am W 1.0-----30.18- 53.2- 47.3---
2024-02-22 09:00 amWNW 1.9-----30.18+0.00 52.0- 47.7---